Starlink 3520

operational
NORAD ID: 51741 Int'l Des: 2022-016 Owner: SPXS Country: US Constellation: starlink
LEOCIRCULAR

About Starlink 3520

Description loading...

Live Position

Loading 3D Globe...

Upcoming Passes

Altitude History

Altitude vs Time

uPlot chart will show altitude changes over time

Two-Line Element Set

1 51741U 22016AD 25352.16676643 -.00001574 00000-0 -80815-4 0 9990
2 51741 53.2181 325.0989 0001502 85.5680 274.5484 15.08830478211255
Epoch: Dec 18, 2025 • Age: 9 hours

Current Status

Altitude 542.6 km
Velocity 7.59 km/s
Sub-Earth Point -9.08°S, 129.03°W
Launch Date Feb 21, 2022
Age 3.8 years
Type internet

Technical Details

Classification Payload
Mass 297.00 kg
Dry Mass 275.00 kg
Total Mass 297.00 kg
Length 0.20 m
Diameter 2.80 m
Span 9.00 m
Shape Box + pan
Manufacturer SPXS
Bus Type Starlink
Phase Status In Orbit
Owner/State SPXS/US

Large Constellations

Loading constellations...